This is the latest recevied weather packets stored in our database for station/object W4OCD. If no packets are shown the sender has not sent any weather packets the latest 10 day(s).
| Time | Temp. | Humidity | Pressure | Rain* | Wind** | Luminosity | Snow |
|---|---|---|---|---|---|---|---|
| 1777895803 | 8.33° C | 98% | 1018.1 hPa | 0 mm | - | 20 W/m² | - |
| 1777895500 | 8.33° C | 98% | 1018.2 hPa | 0 mm | - | 23 W/m² | - |
| 1777894592 | 7.78° C | 98% | 1017.9 hPa | 0 mm | - | 27 W/m² | - |
| 1777894289 | 7.22° C | 98% | 1017.9 hPa | 0 mm | - | 20 W/m² | - |
| 1777893986 | 7.22° C | 98% | 1017.8 hPa | 0 mm | - | 16 W/m² | - |
| 1777893682 | 7.22° C | 98% | 1017.7 hPa | 0 mm | - | 11 W/m² | - |
| 1777893378 | 7.22° C | 98% | 1017.7 hPa | 0 mm | - | 7 W/m² | - |
| 1777893074 | 7.22° C | 98% | 1017.6 hPa | 0 mm | - | 5 W/m² | - |
| 1777892772 | 7.22° C | 98% | 1017.7 hPa | 0 mm | - | 3 W/m² | - |
| 1777892468 | 7.22° C | 98% | 1017.5 hPa | 0 mm | - | 1 W/m² | - |
| 1777892164 | 7.22° C | 98% | 1017.4 hPa | 0 mm | - | 0 W/m² | - |
| 1777891860 | 7.22° C | 97% | 1017.5 hPa | 0 mm | - | 0 W/m² | - |
| 1777891558 | 7.22° C | 98% | 1017.6 hPa | 0 mm | - | 0 W/m² | - |
| 1777891255 | 7.22° C | 98% | 1017.4 hPa | 0 mm | - | 0 W/m² | - |
| 1777890954 | 7.78° C | 98% | 1017.5 hPa | 0 mm | - | 0 W/m² | - |
| 1777890649 | 7.78° C | 97% | 1017.3 hPa | 0 mm | - | 0 W/m² | - |
| 1777890041 | 7.78° C | 97% | 1017.4 hPa | 0 mm | - | 0 W/m² | - |
| 1777889739 | 7.78° C | 97% | 1017.4 hPa | 0 mm | - | 0 W/m² | - |
| 1777889437 | 7.78° C | 97% | 1017.3 hPa | 0 mm | - | 0 W/m² | - |
| 1777889134 | 7.78° C | 97% | 1017.1 hPa | 0 mm | - | 0 W/m² | - |
| 1777888832 | 7.78° C | 97% | 1017.4 hPa | 0 mm | - | 0 W/m² | - |
| 1777888527 | 7.78° C | 97% | 1017.3 hPa | 0 mm | - | 0 W/m² | - |
| 1777888224 | 7.78° C | 97% | 1017.2 hPa | 0 mm | - | 0 W/m² | - |
| 1777887618 | 7.78° C | 97% | 1017.3 hPa | 0 mm | - | 0 W/m² | - |
| 1777887314 | 7.78° C | 97% | 1017.2 hPa | 0 mm | - | 0 W/m² | - |
* Rain latest hour (hover to see other rain measurements)
** Current wind speed in m/s (hover to see current wind gust speed)